[[{"header":{"parameterUnit":"m.s-1","parameterCategory":1,"la1":30.2991,"la2":30.254,"lo1":-89.0895,"lo2":-89.0444,"dy":0.0017,"dx":0.0017,"nx":28,"ny":28,"refTime":"2024-04-10T09:00:00:Z","depth":0,"parameterNumber":2,"parameterNumberName":"U-component_of_WINDS"},"data":[0,0,0,0,0,0,0,0,0,0,0,0,0,0,0,0,0,0,0,0,0,0,0,0,0,0,0,0,0,0,0,0,0,0,0,0,0,0,0,0,0,0,0,0,0,0,0,0,0,0,0,0,0,0,0,0,0,0,9.0139,9.0142,0,9.0399,9.0402,9.0405,9.0333,9.0327,9.0322,9.0317,9.0588,9.06,9.0612,0,0,0,0,0,0,0,0,0,0,0,0,0,8.9584,8.9595,9.0139,9.0142,9.0145,9.0399,9.0402,9.0406,9.0334,9.0327,9.0321,9.0315,9.0584,9.0599,9.0613,0,0,0,0,0,0,0,0,0,0,0,0,0,8.9833,8.9598,9.0138,9.014,9.0142,9.0398,9.0403,9.0407,9.0335,9.0327,9.0319,9.0312,9.058,9.0597,9.0615,9.0887,0,0,9.0671,9.0679,0,0,0,0,0,0,0,0,8.9819,8.9853,9.0136,9.014,9.0144,9.0325,9.0306,9.0568,9.0337,9.0262,9.0317,9.0308,9.0508,9.0531,9.0598,9.0899,9.0911,9.0673,9.0684,9.0691,9.0697,0,0,0,0,0,0,0,8.9802,8.9842,9.0242,9.0141,9.0145,9.0129,9.0156,9.0356,9.0426,9.0268,9.0263,9.0295,9.0508,9.058,9.0603,9.0915,9.0672,9.0688,9.07,9.0707,9.1455,9.1464,0,0,0,0,0,0,8.9781,8.9828,9.0234,9.025,8.9958,9.0145,9.0175,9.0275,9.0424,9.0439,9.0301,9.0291,9.0553,9.0582,9.0613,9.0942,9.0691,9.0708,9.0719,9.1447,9.1457,9.1467,0,0,0,0,0,0,8.977,8.9818,9.0223,9.0038,9.0088,9.0163,9.0276,9.0284,9.0356,9.0449,9.0462,9.0362,9.0548,9.0587,9.0819,9.0951,9.0717,9.0733,9.1436,9.145,9.1462,9.1603,0,0,0,0,0,0,8.9754,8.9814,8.9917,9.0041,9.0098,9.0425,9.0284,9.0295,9.0388,9.0376,9.0509,9.0524,9.0545,9.0793,9.0838,9.0972,9.0747,9.1425,9.1442,9.1458,9.1587,9.1619,9.1647,0,0,0,0,0,8.9734,8.9947,8.9923,8.9972,9.0228,9.0432,9.0465,9.0484,9.0398,9.0503,9.0563,9.052,9.0929,9.0817,9.0867,9.1008,9.1417,9.1437,9.1457,9.1573,9.1613,9.1646,0,0,0,0,0,0,8.9838,8.9963,8.9938,9.0196,9.0304,9.0419,9.0552,9.0525,9.0661,9.0644,9.0662,9.0693,9.0932,9.0993,9.0866,9.128,9.116,9.1191,9.1232,9.127,9.13,9.1281,9.0763,0,0,0,0,0,8.989,9.0044,9.0146,9.0364,9.0419,9.0477,9.0566,9.0571,9.0684,9.073,9.0807,9.092,9.1074,9.1175,9.1322,9.1594,9.1624,9.1717,9.1747,9.1771,9.1798,9.195,9.1993,9.1533,9.1533,9.1533,0,0,9.0001,9.0088,9.0185,9.0387,9.0471,9.0632,9.0516,9.069,9.0811,9.0757,9.0981,9.1042,9.1169,9.1424,9.1539,9.1482,9.1932,9.1797,9.1815,9.183,9.1975,9.2018,9.2057,9.1547,9.1544,9.1542,0,0,9.0286,9.0366,9.0558,9.0645,9.0773,9.081,9.0856,9.0977,9.1015,9.124,9.1204,9.1347,9.1612,9.1705,9.1786,9.2107,9.2073,9.2155,9.2313,9.246,9.2497,9.2529,9.2645,9.2687,9.2181,9.2182,9.2182,0,9.0408,9.0647,9.066,9.0839,9.093,9.0887,9.1083,9.1167,9.1338,9.1403,9.1335,9.1667,9.175,9.2026,9.2105,9.2172,9.2227,9.214,9.249,9.2522,9.2553,9.2664,9.2708,9.2191,9.219,9.2189,9.2188,0,9.0792,9.0959,9.1098,9.1263,9.137,9.1556,9.1599,9.1706,9.1701,9.1746,9.1977,9.2075,9.2241,9.2307,9.2305,9.2585,9.2545,9.2484,9.2364,9.2606,9.2711,9.2753,9.2204,9.2201,9.2198,9.2196,0,0,9.115,9.132,9.1371,9.1446,9.1585,9.1716,9.19,9.2062,9.2155,9.2274,9.2431,9.2656,9.2601,9.2694,9.2702,9.2831,9.3082,9.2754,9.2757,9.2813,9.3398,9.3445,9.3494,9.3059,9.3067,9.3074,9.3388,0,9.1448,9.1772,9.179,9.2085,9.2241,9.2203,9.2364,9.2469,9.2515,9.2656,9.2707,9.2868,9.2781,9.2837,9.2963,9.3024,9.32,9.3002,9.3208,9.3215,9.3179,9.3549,9.3598,9.3891,9.3429,9.3436,9.3441,0,9.1839,9.197,9.2281,9.2399,9.2465,9.261,9.276,9.2894,9.3012,9.3037,9.3141,9.3131,9.3323,9.3195,9.3461,9.3326,9.3412,9.3455,9.3466,9.3488,9.3344,9.3582,9.3984,9.4029,9.3506,9.3501,9.3496,0,9.2072,9.2326,9.2545,9.261,9.2753,9.2856,9.2921,9.303,9.3127,9.3259,9.3323,9.3476,9.356,9.368,9.3712,9.3616,9.3979,9.3853,9.4007,9.4007,9.4087,9.4082,9.451,9.4138,9.4138,9.4137,9.4136,0,9.2405,9.2597,9.2651,9.2787,9.3001,9.302,9.3233,9.3291,9.3389,9.3536,9.3513,9.3652,9.3685,9.3831,9.3857,9.4075,9.4113,9.414,9.4146,9.4144,9.4141,9.4201,9.4183,9.4149,9.4146,9.4144,9.4142,0,9.2702,9.2746,9.2983,9.3098,9.3132,9.3286,9.3386,9.3516,9.3559,9.3746,9.3791,9.3861,9.4031,9.4075,9.4279,9.4297,9.4554,9.4539,9.4514,9.4514,9.4667,9.4653,9.5151,9.5218,9.4801,9.4804,9.4808,0,9.2912,9.3059,9.3191,9.3287,9.3356,9.3511,9.361,9.3634,9.3738,9.3884,9.3998,9.4165,9.4301,9.4576,9.4645,9.4802,9.4792,9.4955,9.4815,9.4809,9.4797,9.4789,9.4804,9.4983,9.4987,9.4991,9.4994,0,9.3282,9.3297,9.3438,9.359,9.3707,9.3827,9.3942,9.4022,9.4063,9.4181,9.4355,9.446,9.4668,9.4836,9.4993,9.5062,9.5037,9.5037,9.5081,9.5082,9.5063,9.5078,9.4589,9.5026,9.5023,9.502,9.5019,9.5017,9.3545,9.3674,9.3787,9.3946,9.4035,9.4143,9.4272,9.4331,9.4476,9.4646,9.4652,9.4842,9.4957,9.5166,9.5244,9.5393,9.5344,9.5408,9.5425,9.5441,9.5455,9.5037,9.5422,9.5421,9.542,9.542,9.5419,0,9.3915,9.3986,9.4132,9.4293,9.4419,9.4381,9.4507,9.4615,9.4782,9.4891,9.5024,9.5225,9.5388,9.547,9.5631,9.5736,9.5728,9.5778,9.5771,9.5788,9.5489,9.5435,9.5781,9.5781,9.5781,9.5781,9.5781,9.5781,9.4123,9.4341,9.4369,9.4631,9.47,9.4885,9.496,9.506,9.5147,9.5372,9.5506,9.5558,9.5657,9.5826,9.5974,9.5994,9.6056,9.6112,9.6127,9.5846,9.5809,9.5774,9.5724,9.6125,9.6125,9.6414,9.6416,9.6418]},{"header":{"parameterUnit":"m.s-1","parameterCategory":1,"la1":30.2991,"la2":30.254,"lo1":-89.0895,"lo2":-89.0444,"dy":0.0017,"dx":0.0017,"nx":28,"ny":28,"refTime":"2024-04-10T09:00:00:Z","depth":0,"parameterNumber":3,"parameterNumberName":"V-component_of_WINDS"},"data":[0,0,0,0,0,0,0,0,0,0,0,0,0,0,0,0,0,0,0,0,0,0,0,0,0,0,0,0,0,0,0,0,0,0,0,0,0,0,0,0,0,0,0,0,0,0,0,0,0,0,0,0,0,0,0,0,0,0,-0.2671,-0.2671,0,-0.2609,-0.2608,-0.2607,-0.2596,-0.2596,-0.2597,-0.2597,-0.2531,-0.2528,-0.2526,0,0,0,0,0,0,0,0,0,0,0,0,0,-0.278,-0.2778,-0.2671,-0.2671,-0.267,-0.2609,-0.2608,-0.2607,-0.2596,-0.2596,-0.2597,-0.2598,-0.2531,-0.2529,-0.2526,0,0,0,0,0,0,0,0,0,0,0,0,0,-0.2727,-0.2777,-0.2671,-0.2657,-0.2655,-0.2609,-0.2608,-0.2607,-0.2596,-0.2596,-0.2597,-0.2598,-0.2532,-0.2529,-0.2526,-0.2489,0,0,-0.2515,-0.2514,0,0,0,0,0,0,0,0,-0.273,-0.2723,-0.266,-0.2658,-0.2655,-0.2611,-0.2622,-0.2567,-0.2595,-0.2618,-0.2597,-0.2598,-0.2557,-0.2551,-0.2538,-0.2486,-0.2483,-0.2515,-0.2513,-0.2511,-0.2511,0,0,0,0,0,0,0,-0.2733,-0.2725,-0.2646,-0.2659,-0.2656,-0.2653,-0.2646,-0.2611,-0.2584,-0.2616,-0.2615,-0.2608,-0.2555,-0.2541,-0.2536,-0.2482,-0.2515,-0.2512,-0.251,-0.2509,-0.2398,-0.2397,0,0,0,0,0,0,-0.274,-0.2728,-0.2648,-0.2645,-0.2695,-0.265,-0.2643,-0.2624,-0.2584,-0.2579,-0.2607,-0.2608,-0.2546,-0.254,-0.2534,-0.2488,-0.2511,-0.2508,-0.2506,-0.2399,-0.2398,-0.2397,0,0,0,0,0,0,-0.2742,-0.2733,-0.2651,-0.2686,-0.2675,-0.2648,-0.2627,-0.2623,-0.2608,-0.2577,-0.2572,-0.2598,-0.2547,-0.2538,-0.2501,-0.2486,-0.2507,-0.2504,-0.24,-0.2399,-0.2397,-0.2398,0,0,0,0,0,0,-0.2745,-0.2734,-0.272,-0.2686,-0.2674,-0.2619,-0.2626,-0.2621,-0.2603,-0.2602,-0.2567,-0.2562,-0.2547,-0.2506,-0.2497,-0.2482,-0.2501,-0.2401,-0.2399,-0.2398,-0.2399,-0.2397,-0.2395,0,0,0,0,0,-0.2749,-0.2722,-0.2719,-0.271,-0.2656,-0.2618,-0.2611,-0.2595,-0.2601,-0.2587,-0.2568,-0.2563,-0.2489,-0.2502,-0.2492,-0.2475,-0.2402,-0.24,-0.2398,-0.24,-0.2397,-0.2395,0,0,0,0,0,0,-0.2753,-0.2717,-0.2714,-0.2674,-0.265,-0.2617,-0.2598,-0.2593,-0.2565,-0.2566,-0.2547,-0.2539,-0.2502,-0.2485,-0.25,-0.2438,-0.2446,-0.2442,-0.2451,-0.2448,-0.2446,-0.245,-0.2498,0,0,0,0,0,-0.275,-0.2723,-0.2693,-0.2661,-0.2649,-0.2626,-0.2609,-0.2599,-0.2572,-0.2561,-0.2539,-0.2513,-0.2484,-0.2465,-0.2436,-0.2397,-0.2389,-0.238,-0.2378,-0.2377,-0.2373,-0.2351,-0.2347,-0.239,-0.239,-0.239,0,0,-0.2742,-0.2719,-0.2703,-0.2661,-0.2641,-0.2614,-0.2617,-0.2587,-0.2567,-0.2557,-0.252,-0.2503,-0.2472,-0.2433,-0.2415,-0.2418,-0.236,-0.2374,-0.2373,-0.237,-0.2349,-0.2345,-0.2341,-0.2389,-0.2389,-0.2389,0,0,-0.2714,-0.2694,-0.2665,-0.2645,-0.2615,-0.26,-0.2593,-0.2561,-0.255,-0.2513,-0.2505,-0.248,-0.243,-0.2409,-0.2392,-0.2357,-0.2352,-0.2348,-0.2336,-0.2315,-0.2312,-0.2309,-0.2297,-0.2293,-0.2345,-0.2345,-0.2345,0,-0.2708,-0.2667,-0.2651,-0.2623,-0.2604,-0.2595,-0.2566,-0.2547,-0.2509,-0.2497,-0.2501,-0.2439,-0.2418,-0.2374,-0.2366,-0.2352,-0.2344,-0.2352,-0.2314,-0.2311,-0.2308,-0.2296,-0.2291,-0.2345,-0.2345,-0.2345,-0.2345,0,-0.2661,-0.2632,-0.2613,-0.2577,-0.2557,-0.2528,-0.2508,-0.249,-0.2482,-0.2466,-0.2429,-0.2404,-0.237,-0.2359,-0.2351,-0.2315,-0.2317,-0.2318,-0.2325,-0.2304,-0.2292,-0.2287,-0.2344,-0.2344,-0.2344,-0.2344,0,0,-0.2632,-0.2589,-0.2583,-0.2567,-0.2533,-0.2511,-0.2482,-0.245,-0.2434,-0.2408,-0.2384,-0.2343,-0.2343,-0.2324,-0.2313,-0.2295,-0.2269,-0.2297,-0.2296,-0.2293,-0.2228,-0.2228,-0.2223,-0.2266,-0.2265,-0.2264,-0.2231,0,-0.26,-0.2548,-0.2534,-0.2491,-0.2464,-0.2456,-0.2431,-0.2407,-0.2392,-0.2368,-0.2351,-0.2322,-0.2325,-0.2313,-0.2295,-0.2276,-0.2256,-0.2278,-0.2242,-0.2241,-0.225,-0.2217,-0.2216,-0.2185,-0.2226,-0.2225,-0.2225,0,-0.2555,-0.2529,-0.2483,-0.2454,-0.2443,-0.242,-0.239,-0.2367,-0.234,-0.2331,-0.231,-0.2301,-0.227,-0.228,-0.2237,-0.2253,-0.2238,-0.2226,-0.2225,-0.222,-0.2231,-0.2211,-0.2175,-0.2171,-0.2217,-0.2218,-0.2218,0,-0.2539,-0.2493,-0.246,-0.2446,-0.2411,-0.2396,-0.238,-0.2355,-0.2337,-0.2311,-0.2299,-0.2269,-0.2253,-0.223,-0.2214,-0.2222,-0.2173,-0.2181,-0.2164,-0.2164,-0.2153,-0.2154,-0.2114,-0.2143,-0.2144,-0.2144,-0.2144,0,-0.2504,-0.2476,-0.2452,-0.2432,-0.24,-0.2385,-0.2354,-0.2338,-0.2316,-0.2292,-0.2282,-0.226,-0.224,-0.2215,-0.2201,-0.2169,-0.2161,-0.2152,-0.2149,-0.2153,-0.2154,-0.2142,-0.2144,-0.2142,-0.2143,-0.2143,-0.2143,0,-0.2481,-0.2463,-0.2427,-0.2397,-0.2389,-0.2367,-0.2341,-0.2321,-0.2306,-0.2276,-0.2268,-0.2245,-0.2215,-0.2197,-0.2158,-0.215,-0.2113,-0.2111,-0.2123,-0.2121,-0.2105,-0.2107,-0.2056,-0.2049,-0.2083,-0.2083,-0.2083,0,-0.2459,-0.2438,-0.2406,-0.239,-0.2375,-0.2349,-0.2331,-0.2315,-0.2296,-0.2265,-0.2249,-0.2219,-0.2193,-0.2146,-0.2125,-0.2096,-0.2093,-0.2077,-0.2088,-0.2093,-0.2093,-0.2094,-0.2092,-0.2075,-0.2075,-0.2075,-0.2074,0,-0.2424,-0.2417,-0.2391,-0.2363,-0.2343,-0.232,-0.2297,-0.2284,-0.2264,-0.2243,-0.2213,-0.2194,-0.2156,-0.2126,-0.2096,-0.2079,-0.2073,-0.2071,-0.2066,-0.2069,-0.2077,-0.2073,-0.2117,-0.2072,-0.2073,-0.2073,-0.2073,-0.2073,-0.2401,-0.2382,-0.2357,-0.2329,-0.231,-0.2289,-0.2269,-0.2252,-0.2227,-0.2195,-0.2187,-0.2156,-0.213,-0.2089,-0.2072,-0.2047,-0.2049,-0.2041,-0.2039,-0.2038,-0.2037,-0.2082,-0.2042,-0.2042,-0.2042,-0.2042,-0.2042,0,-0.2365,-0.2349,-0.2323,-0.2292,-0.2271,-0.2268,-0.2243,-0.2225,-0.2197,-0.2175,-0.2151,-0.2116,-0.2088,-0.2065,-0.2036,-0.202,-0.2017,-0.2013,-0.2014,-0.201,-0.2037,-0.2045,-0.2016,-0.2016,-0.2016,-0.2016,-0.2016,-0.2016,-0.2343,-0.2311,-0.2301,-0.2259,-0.2243,-0.2213,-0.2199,-0.2179,-0.2161,-0.2124,-0.21,-0.2086,-0.2063,-0.2033,-0.2006,-0.2,-0.199,-0.1987,-0.198,-0.2005,-0.2008,-0.2011,-0.2018,-0.1984,-0.1984,-0.1955,-0.1955,-0.1955]}]]